GMT,Max TemperatureF,Mean TemperatureF,Min TemperatureF,Max Dew PointF,MeanDew PointF,Min DewpointF,Max Humidity, Mean Humidity, Min Humidity, Max Sea Level PressureIn, Mean Sea Level PressureIn, Min Sea Level PressureIn, Max VisibilityMiles, Mean VisibilityMiles, Min VisibilityMiles, Max Wind SpeedMPH, Mean Wind SpeedMPH, Max Gust SpeedMPH,PrecipitationIn, CloudCover, Events, WindDirDegrees
2011-10-1,60,60,59,61,59,57,100,96,94,30.21,30.19,30.15,5,3,2,9,5,,0.00,6,Rain,92
2011-10-2,59,56,53,57,55,54,100,96,88,30.15,30.03,29.98,6,5,3,13,6,,0.00,6,Rain,76
2011-10-3,64,58,53,57,52,46,88,80,63,29.83,29.69,29.56,6,6,6,34,18,48,0.00,3,Rain,245
2011-10-4,57,55,53,50,49,46,88,79,72,29.80,29.78,29.74,6,6,6,29,23,,0.00,5,,246
2011-10-5,62,58,53,57,55,48,94,85,77,29.56,29.45,29.39,6,6,6,32,26,39,0.00,4,Rain,243
2011-10-6,51,48,44,45,43,39,87,81,71,29.56,29.40,29.33,6,6,6,33,23,45,0.00,1,Rain,256
2011-10-7,59,52,46,45,42,37,81,66,54,30.06,30.01,29.86,6,6,6,18,10,28,0.00,2,,283
2011-10-8,51,50,48,50,47,43,94,89,82,30.06,30.05,30.01,6,6,5,7,3,,0.00,5,,231
2011-10-9,62,58,53,57,52,50,94,83,72,29.74,29.70,29.65,6,6,6,24,20,,0.00,1,,253
2011-10-10,57,54,51,50,49,46,94,83,72,29.74,29.70,29.62,6,6,6,22,12,,0.00,2,Rain,256
2011-10-11,55,50,44,48,44,41,93,76,62,30.01,29.87,29.74,6,6,6,21,12,,0.00,2,Rain,274
2011-10-12,53,50,46,48,45,43,93,80,71,30.27,30.14,30.04,6,6,6,9,5,,0.00,5,Rain,75
2011-10-13,57,54,50,52,50,46,94,86,77,30.36,30.35,30.33,6,6,6,6,3,,0.00,6,,102
2011-10-14,62,58,55,55,54,54,100,86,72,30.33,30.28,30.24,6,6,4,13,4,,0.00,4,Rain,153
2011-10-15,59,58,57,52,51,50,82,80,77,30.15,30.13,30.09,6,6,6,20,12,,0.00,2,,237
2011-10-16,57,54,50,52,48,46,88,78,72,30.04,29.99,29.92,6,6,6,20,14,,0.00,1,,233
2011-10-17,53,47,41,48,43,39,100,90,77,29.65,29.51,29.36,6,6,4,33,21,46,0.00,5,Rain,254
2011-10-18,51,48,46,45,40,37,87,75,62,29.56,29.39,29.30,6,6,6,30,24,41,0.00,2,Rain,263
2011-10-19,48,42,37,36,34,32,87,72,57,30.12,30.01,29.83,6,6,6,16,8,22,0.00,2,,291
2011-10-20,50,42,35,46,42,34,93,89,81,30.18,30.13,30.04,6,6,6,16,6,,0.00,4,Rain,248
2011-10-21,55,53,51,52,51,48,94,89,82,29.86,29.83,29.80,6,6,6,28,19,,0.00,6,Rain,229
2011-10-22,55,54,53,48,47,45,82,79,72,29.74,29.69,29.62,6,6,6,26,16,34,0.00,5,,202
2011-10-23,57,54,51,52,51,48,94,87,82,29.56,29.50,29.44,6,6,6,18,7,,0.00,2,,102
2011-10-24,55,54,53,52,50,48,94,86,82,29.44,29.43,29.39,6,6,6,32,22,43,0.00,6,Rain,119
2011-10-25,59,56,51,57,53,50,100,95,94,29.44,29.39,29.33,6,5,4,25,19,,0.00,6,Rain,116
2011-10-26,55,52,48,48,46,45,94,82,72,29.56,29.48,29.42,6,6,6,12,4,,0.00,3,Rain,174
2011-10-27,55,52,48,50,47,45,94,83,72,29.77,29.69,29.62,6,6,6,15,8,23,0.00,2,,209
2011-10-28,53,50,46,46,45,43,93,81,72,30.06,30.03,29.98,6,6,6,20,12,,0.00,1,,226
2011-10-29,57,54,51,52,49,48,88,83,77,29.83,29.75,29.62,6,6,6,24,11,,0.00,5,Rain,194
2011-10-30,57,55,53,52,51,50,94,86,82,29.80,29.79,29.77,6,6,6,21,12,,0.00,4,,249
2011-10-31,60,58,53,57,54,50,100,87,72,29.68,29.60,29.53,6,6,5,22,8,30,0.00,5,Rain,162